contact:dominique.lefevre@mio.osupytheas.fr, maurice.libes@osupytheas.fr, didier.mallarino@osupytheas.fr
Project:EMSO http://www.emso-fr.org/EMSO-France
Depth: 2436.0 m
Title:EMSO Ligure Ouest : Data MII capteur AQUADOPP
Date,Latitude,Longitude,X_East,Y_North,Z_Up,Amplitude_X,Amplitude_Y,Amplitude_Z,Batterie,SoundSpeed,Heading,Pitch,Roll,Pressure,TIS,Speed,Direction
, degrees North, degrees East, m.s-1, m.s-1,m.s-1, 1, 1, 1, Volt, m.s-1, degree, degree, degree, dbar, degree_C, m.s-1, degree
2022-09-25T00:04:03,42.805,6.029,-0.021,0.002,0.003,101.0,101.0,100.0,13.3,1505.2,332.2,-0.8,1.8,2471.007,13.29,0.021,275.4
2022-09-25T00:07:03,42.805,6.029,0.007,-0.037,-0.009,100.0,100.0,99.0,13.4,1505.2,330.6,-0.8,1.8,2471.022,13.29,0.037,169.3
2022-09-25T00:10:03,42.805,6.029,-0.022,-0.015,0.029,101.0,100.0,99.0,13.4,1505.2,327.9,-0.8,1.8,2470.998,13.29,0.026,235.7
2022-09-25T00:13:03,42.805,6.029,-0.006,-0.036,0.003,100.0,101.0,98.0,13.3,1505.2,325.1,-0.8,1.8,2470.987,13.29,0.036,189.5
2022-09-25T00:16:03,42.805,6.029,-0.008,-0.015,0.023,101.0,98.0,100.0,13.4,1505.2,334.9,-0.7,1.8,2470.971,13.29,0.017,208.1
2022-09-25T00:19:03,42.805,6.029,-0.042,-0.018,-0.016,100.0,100.0,99.0,13.3,1505.2,321.3,-0.8,1.8,2470.974,13.29,0.045,246.8
2022-09-25T00:22:03,42.805,6.029,0.004,-0.01,0.045,100.0,100.0,99.0,13.4,1505.2,329.0,-0.8,1.8,2470.971,13.29,0.01,158.2
2022-09-25T00:25:03,42.805,6.029,0.001,-0.041,-0.023,100.0,100.0,100.0,13.4,1505.2,321.0,-0.7,1.8,2470.995,13.29,0.041,178.6
2022-09-25T00:28:03,42.805,6.029,-0.015,-0.031,-0.008,99.0,101.0,99.0,13.4,1505.2,333.1,-0.8,1.8,2470.984,13.29,0.034,205.8
2022-09-25T00:31:03,42.805,6.029,0.0,-0.01,0.015,98.0,100.0,101.0,13.4,1505.2,327.2,-0.7,1.8,2470.988,13.3,0.01,180.0
2022-09-25T00:34:03,42.805,6.029,-0.029,-0.005,0.039,100.0,100.0,99.0,13.4,1505.2,324.6,-0.8,1.9,2470.993,13.29,0.029,260.2
2022-09-25T00:37:03,42.805,6.029,-0.018,-0.032,-0.002,99.0,101.0,99.0,13.4,1505.2,331.2,-0.8,1.8,2470.943,13.3,0.036,209.4
2022-09-25T00:40:03,42.805,6.029,0.025,-0.019,0.033,100.0,101.0,100.0,13.4,1505.2,321.1,-0.8,1.8,2470.939,13.29,0.031,127.2
2022-09-25T00:43:03,42.805,6.029,-0.019,-0.011,0.005,100.0,100.0,99.0,13.4,1505.2,330.3,-0.8,1.8,2470.913,13.29,0.021,239.9
2022-09-25T00:46:03,42.805,6.029,0.001,-0.037,0.029,101.0,100.0,99.0,13.4,1505.2,318.6,-0.8,1.8,2470.921,13.3,0.037,178.5
2022-09-25T00:49:03,42.805,6.029,0.007,-0.027,-0.001,100.0,100.0,100.0,13.4,1505.2,319.8,-0.7,1.8,2470.922,13.3,0.027,165.5
2022-09-25T00:52:03,42.805,6.029,-0.04,0.001,0.002,100.0,100.0,101.0,13.4,1505.2,326.4,-0.8,1.8,2470.966,13.3,0.04,271.4
2022-09-25T00:55:03,42.805,6.029,-0.026,-0.001,0.034,98.0,101.0,99.0,13.4,1505.2,332.2,-0.8,1.8,2470.968,13.3,0.026,267.8
2022-09-25T00:58:03,42.805,6.029,0.006,0.0,0.041,99.0,99.0,100.0,13.3,1505.2,320.1,-0.7,1.8,2470.917,13.3,0.006,90.0
2022-09-25T01:04:03,42.805,6.029,0.043,0.001,0.043,100.0,101.0,103.0,13.4,1505.2,332.2,-0.7,1.8,2470.995,13.29,0.043,88.7
2022-09-25T01:07:03,42.805,6.029,-0.01,-0.019,0.022,100.0,102.0,98.0,13.3,1505.2,325.3,-0.8,1.8,2470.979,13.29,0.021,207.8
2022-09-25T01:10:03,42.805,6.029,0.009,-0.026,-0.036,98.0,99.0,103.0,13.4,1505.2,328.3,-0.7,1.8,2470.956,13.29,0.027,160.9
2022-09-25T01:13:03,42.805,6.029,0.007,-0.019,0.008,100.0,100.0,99.0,13.4,1505.2,321.6,-0.7,1.8,2470.964,13.29,0.02,159.8
2022-09-25T01:16:03,42.805,6.029,-0.02,-0.025,0.008,99.0,99.0,103.0,13.4,1505.2,329.2,-0.8,1.8,2470.973,13.29,0.032,218.7
2022-09-25T01:19:03,42.805,6.029,-0.035,-0.021,0.014,100.0,99.0,100.0,13.4,1505.2,317.4,-0.7,1.8,2470.941,13.29,0.04,239.0
2022-09-25T01:22:03,42.805,6.029,-0.03,0.0,0.014,100.0,100.0,99.0,13.3,1505.2,325.5,-0.8,1.8,2470.952,13.29,0.03,270.0
2022-09-25T01:25:03,42.805,6.029,-0.066,0.001,0.013,99.0,101.0,98.0,13.4,1505.2,331.8,-0.7,1.9,2470.926,13.29,0.066,270.9
2022-09-25T01:28:03,42.805,6.029,-0.021,-0.01,0.008,98.0,101.0,100.0,13.4,1505.2,327.0,-0.7,1.8,2470.942,13.29,0.023,244.5
2022-09-25T01:31:03,42.805,6.029,-0.018,-0.021,-0.011,99.0,100.0,100.0,13.4,1505.2,331.0,-0.8,1.8,2470.972,13.29,0.027,220.6
2022-09-25T01:34:03,42.805,6.029,0.0,-0.038,-0.045,100.0,101.0,99.0,13.3,1505.2,316.7,-0.8,1.8,2470.923,13.29,0.038,180.0
2022-09-25T01:37:03,42.805,6.029,-0.028,0.001,0.027,100.0,98.0,100.0,13.4,1505.2,333.1,-0.7,1.8,2470.881,13.29,0.028,272.0
2022-09-25T01:40:03,42.805,6.029,-0.013,-0.009,0.016,97.0,100.0,100.0,13.4,1505.2,317.8,-0.8,1.8,2470.941,13.29,0.015,235.3
2022-09-25T01:43:03,42.805,6.029,-0.005,-0.016,0.006,98.0,100.0,101.0,13.3,1505.2,328.9,-0.7,1.8,2470.937,13.29,0.016,197.4
2022-09-25T01:46:03,42.805,6.029,-0.04,-0.014,0.021,100.0,100.0,99.0,13.4,1505.2,318.5,-0.8,1.8,2470.962,13.29,0.042,250.7
2022-09-25T01:49:03,42.805,6.029,-0.035,-0.026,-0.019,98.0,101.0,99.0,13.3,1505.2,332.5,-0.7,1.8,2470.933,13.29,0.043,233.4
2022-09-25T01:52:03,42.805,6.029,-0.034,-0.014,0.011,98.0,101.0,99.0,13.4,1505.2,328.5,-0.7,1.8,2470.924,13.29,0.036,247.6
2022-09-25T01:55:03,42.805,6.029,-0.034,-0.026,0.019,100.0,102.0,99.0,13.4,1505.2,327.2,-0.8,1.8,2470.937,13.29,0.042,232.6
2022-09-25T01:58:03,42.805,6.029,-0.01,-0.022,0.014,102.0,101.0,98.0,13.4,1505.2,330.0,-0.7,1.8,2470.939,13.29,0.024,204.4
2022-09-25T02:04:03,42.805,6.029,-0.041,-0.002,0.021,101.0,97.0,100.0,13.4,1505.2,331.2,-0.8,1.8,2470.983,13.29,0.041,267.2
2022-09-25T02:07:03,42.805,6.029,-0.024,-0.02,0.006,98.0,100.0,99.0,13.3,1505.2,332.8,-0.7,1.8,2471.004,13.29,0.031,230.2
2022-09-25T02:10:03,42.805,6.029,-0.01,-0.001,0.034,100.0,101.0,100.0,13.4,1505.2,327.8,-0.8,1.8,2470.962,13.29,0.01,264.3
2022-09-25T02:13:03,42.805,6.029,-0.003,-0.006,0.031,100.0,100.0,99.0,13.3,1505.2,323.3,-0.8,1.8,2470.957,13.29,0.006,206.6
2022-09-25T02:16:03,42.805,6.029,-0.028,-0.03,-0.034,99.0,103.0,99.0,13.3,1505.2,330.8,-0.8,1.8,2470.94,13.29,0.041,223.0
2022-09-25T02:19:03,42.805,6.029,-0.022,-0.03,-0.011,104.0,100.0,99.0,13.4,1505.2,326.4,-0.7,1.8,2470.936,13.3,0.037,216.3
2022-09-25T02:22:03,42.805,6.029,-0.022,-0.017,0.004,101.0,100.0,99.0,13.3,1505.2,323.8,-0.7,1.8,2470.913,13.3,0.027,232.3
2022-09-25T02:25:03,42.805,6.029,0.002,-0.013,0.026,101.0,104.0,97.0,13.4,1505.2,321.9,-0.8,1.8,2470.907,13.3,0.013,171.3
2022-09-25T02:28:03,42.805,6.029,-0.001,-0.026,0.016,101.0,99.0,101.0,13.3,1505.2,322.2,-0.8,1.8,2470.9,13.3,0.026,182.2
2022-09-25T02:31:03,42.805,6.029,-0.028,-0.019,-0.025,100.0,100.0,99.0,13.4,1505.2,324.3,-0.8,1.8,2470.925,13.3,0.033,235.8
2022-09-25T02:34:03,42.805,6.029,-0.012,-0.02,0.029,99.0,101.0,98.0,13.3,1505.2,326.8,-0.8,1.8,2470.974,13.29,0.023,211.0
2022-09-25T02:37:03,42.805,6.029,-0.016,-0.006,0.03,99.0,101.0,99.0,13.4,1505.2,328.3,-0.7,1.8,2470.954,13.29,0.017,249.4
2022-09-25T02:40:03,42.805,6.029,-0.027,0.005,0.003,99.0,102.0,99.0,13.4,1505.2,325.9,-0.7,1.8,2470.965,13.29,0.027,280.5
2022-09-25T02:43:03,42.805,6.029,-0.031,-0.002,0.013,100.0,100.0,99.0,13.4,1505.2,321.0,-0.8,1.8,2470.973,13.29,0.031,266.3
2022-09-25T02:46:03,42.805,6.029,-0.017,-0.031,0.0,100.0,103.0,99.0,13.3,1505.2,322.2,-0.8,1.8,2470.941,13.29,0.035,208.7
2022-09-25T02:49:03,42.805,6.029,-0.026,-0.021,0.021,100.0,97.0,99.0,13.3,1505.2,323.1,-0.8,1.8,2470.926,13.29,0.033,231.1
2022-09-25T02:52:03,42.805,6.029,-0.023,-0.037,-0.035,100.0,100.0,100.0,13.4,1505.2,327.1,-0.8,1.8,2470.918,13.29,0.043,211.9
2022-09-25T02:55:03,42.805,6.029,-0.018,-0.019,0.014,99.0,100.0,99.0,13.3,1505.2,320.2,-0.8,1.8,2470.946,13.29,0.026,223.5
2022-09-25T02:58:03,42.805,6.029,-0.029,-0.042,0.0,100.0,101.0,98.0,13.4,1505.2,326.9,-0.7,1.8,2470.975,13.29,0.051,214.6
2022-09-25T03:04:03,42.805,6.029,-0.001,-0.029,0.005,99.0,100.0,100.0,13.4,1505.2,320.8,-0.8,1.8,2470.993,13.29,0.029,182.0
2022-09-25T03:07:03,42.805,6.029,-0.016,-0.024,0.03,99.0,100.0,99.0,13.3,1505.2,328.8,-0.7,1.8,2471.008,13.29,0.028,213.7
2022-09-25T03:10:03,42.805,6.029,-0.025,-0.013,0.009,100.0,102.0,102.0,13.4,1505.2,319.7,-0.8,1.8,2470.989,13.29,0.028,242.5
2022-09-25T03:13:03,42.805,6.029,-0.01,-0.017,-0.008,102.0,100.0,108.0,13.3,1505.2,324.5,-0.7,1.8,2471.013,13.29,0.019,210.5
2022-09-25T03:16:03,42.805,6.029,-0.033,-0.025,0.008,99.0,100.0,99.0,13.3,1505.2,326.4,-0.8,1.8,2470.986,13.29,0.041,232.9
2022-09-25T03:19:03,42.805,6.029,0.003,-0.001,0.021,100.0,102.0,99.0,13.3,1505.2,328.9,-0.8,1.8,2470.967,13.29,0.003,108.4
2022-09-25T03:22:03,42.805,6.029,-0.008,-0.028,0.039,101.0,100.0,99.0,13.4,1505.2,322.2,-0.8,1.8,2470.965,13.29,0.029,195.9
2022-09-25T03:25:03,42.805,6.029,-0.017,-0.015,0.0,99.0,99.0,103.0,13.4,1505.2,319.8,-0.7,1.8,2470.996,13.29,0.022,228.6
2022-09-25T03:28:03,42.805,6.029,-0.028,-0.033,0.012,99.0,99.0,100.0,13.4,1505.2,322.1,-0.7,1.8,2470.987,13.29,0.043,220.3
2022-09-25T03:31:03,42.805,6.029,-0.035,-0.019,0.013,97.0,101.0,100.0,13.4,1505.2,320.5,-0.8,1.8,2470.983,13.29,0.039,241.5
2022-09-25T03:34:03,42.805,6.029,-0.036,-0.006,0.003,100.0,100.0,99.0,13.4,1505.2,325.3,-0.8,1.8,2470.99,13.29,0.036,260.5
2022-09-25T03:37:03,42.805,6.029,-0.01,-0.01,0.007,99.0,100.0,100.0,13.4,1505.2,319.8,-0.8,1.8,2470.954,13.29,0.014,225.0
2022-09-25T03:40:03,42.805,6.029,-0.046,0.005,0.008,100.0,99.0,99.0,13.4,1505.2,326.9,-0.8,1.8,2470.993,13.29,0.046,276.2
2022-09-25T03:43:03,42.805,6.029,-0.036,-0.016,0.032,99.0,100.0,99.0,13.4,1505.2,331.9,-0.8,1.8,2470.967,13.29,0.039,246.0
2022-09-25T03:46:03,42.805,6.029,0.004,-0.057,-0.024,99.0,99.0,100.0,13.4,1505.2,318.8,-0.7,1.8,2470.99,13.29,0.057,176.0
2022-09-25T03:49:03,42.805,6.029,-0.027,-0.018,0.027,99.0,103.0,101.0,13.4,1505.2,322.1,-0.7,1.8,2470.982,13.29,0.032,236.3
2022-09-25T03:52:03,42.805,6.029,-0.012,-0.001,0.024,100.0,100.0,100.0,13.4,1505.2,321.9,-0.8,1.8,2471.003,13.29,0.012,265.2
2022-09-25T03:55:03,42.805,6.029,-0.031,-0.019,0.001,100.0,98.0,99.0,13.3,1505.2,327.2,-0.7,1.8,2470.984,13.29,0.036,238.5
2022-09-25T03:58:03,42.805,6.029,-0.015,-0.005,0.023,98.0,100.0,100.0,13.3,1505.2,329.4,-0.8,1.8,2471.013,13.29,0.015,251.6
2022-09-25T04:04:03,42.805,6.029,-0.019,-0.024,0.008,99.0,99.0,100.0,13.4,1505.2,320.9,-0.7,1.8,2471.021,13.29,0.03,218.4
2022-09-25T04:07:03,42.805,6.029,-0.006,0.0,0.031,100.0,100.0,99.0,13.4,1505.2,327.4,-0.7,1.8,2471.016,13.29,0.006,270.0
2022-09-25T04:10:03,42.805,6.029,-0.004,-0.008,0.018,99.0,100.0,100.0,13.4,1505.2,323.0,-0.7,1.8,2471.012,13.29,0.008,206.6
2022-09-25T04:13:03,42.805,6.029,-0.026,-0.017,-0.011,101.0,101.0,98.0,13.3,1505.2,322.2,-0.8,1.8,2471.022,13.29,0.031,236.8
2022-09-25T04:16:03,42.805,6.029,-0.041,0.006,0.04,101.0,100.0,100.0,13.4,1505.2,322.2,-0.8,1.8,2471.005,13.29,0.041,278.3
2022-09-25T04:19:03,42.805,6.029,-0.021,-0.025,-0.005,99.0,99.0,100.0,13.4,1505.2,333.7,-0.8,1.8,2471.017,13.29,0.032,220.0
2022-09-25T04:22:03,42.805,6.029,-0.021,-0.008,0.023,102.0,100.0,99.0,13.3,1505.2,330.8,-0.8,1.8,2471.043,13.29,0.022,249.1
2022-09-25T04:25:03,42.805,6.029,-0.013,-0.003,0.001,100.0,101.0,99.0,13.3,1505.2,333.4,-0.8,1.8,2471.021,13.29,0.013,257.0
2022-09-25T04:28:03,42.805,6.029,-0.037,-0.021,-0.008,101.0,100.0,99.0,13.3,1505.2,323.2,-0.8,1.8,2471.019,13.29,0.042,240.4
2022-09-25T04:31:03,42.805,6.029,-0.002,-0.018,-0.015,100.0,99.0,98.0,13.4,1505.2,325.4,-0.8,1.8,2471.011,13.29,0.018,186.3
2022-09-25T04:34:03,42.805,6.029,0.014,-0.008,0.049,100.0,100.0,99.0,13.3,1505.2,322.0,-0.8,1.8,2471.012,13.29,0.016,119.7
2022-09-25T04:37:03,42.805,6.029,-0.02,-0.028,-0.016,99.0,102.0,99.0,13.4,1505.2,325.8,-0.8,1.8,2471.021,13.29,0.034,215.5
2022-09-25T04:40:03,42.805,6.029,-0.015,0.0,0.026,100.0,100.0,99.0,13.3,1505.2,329.4,-0.8,1.8,2470.998,13.29,0.015,270.0
2022-09-25T04:43:03,42.805,6.029,-0.047,-0.016,-0.014,100.0,100.0,100.0,13.4,1505.2,332.5,-0.8,1.8,2470.996,13.29,0.049,251.2
2022-09-25T04:46:03,42.805,6.029,-0.002,-0.019,0.023,99.0,101.0,99.0,13.3,1505.2,318.3,-0.7,1.8,2471.016,13.29,0.019,186.0
2022-09-25T04:49:03,42.805,6.029,-0.022,-0.039,-0.015,101.0,100.0,98.0,13.4,1505.2,330.3,-0.7,1.9,2471.024,13.29,0.044,209.4
2022-09-25T04:52:03,42.805,6.029,-0.026,-0.01,0.047,100.0,100.0,100.0,13.3,1505.2,324.0,-0.8,1.8,2471.017,13.29,0.027,249.0
2022-09-25T04:55:03,42.805,6.029,-0.009,-0.016,0.02,99.0,100.0,99.0,13.4,1505.2,321.2,-0.8,1.8,2471.037,13.29,0.018,209.4
2022-09-25T04:58:03,42.805,6.029,-0.025,-0.023,-0.005,99.0,100.0,99.0,13.4,1505.2,322.2,-0.8,1.8,2471.017,13.29,0.033,227.4
2022-09-25T05:04:03,42.805,6.029,-0.005,-0.017,0.001,97.0,102.0,100.0,13.4,1505.2,319.8,-0.8,1.8,2471.07,13.29,0.017,196.4
2022-09-25T05:07:03,42.805,6.029,-0.037,-0.001,0.022,100.0,100.0,100.0,13.4,1505.2,322.6,-0.8,1.8,2471.06,13.29,0.037,268.5
2022-09-25T05:10:03,42.805,6.029,-0.046,-0.027,-0.043,100.0,101.0,100.0,13.4,1505.2,322.6,-0.8,1.8,2471.054,13.29,0.053,239.6
2022-09-25T05:13:03,42.805,6.029,-0.025,-0.014,0.009,99.0,100.0,99.0,13.3,1505.2,319.5,-0.7,1.8,2471.058,13.29,0.028,240.7
2022-09-25T05:16:03,42.805,6.029,-0.045,0.025,0.051,100.0,99.0,99.0,13.4,1505.2,329.8,-0.8,1.8,2471.044,13.29,0.051,299.1
2022-09-25T05:19:03,42.805,6.029,-0.039,0.005,0.007,99.0,103.0,100.0,13.3,1505.2,327.9,-0.8,1.8,2471.043,13.29,0.039,277.3
2022-09-25T05:22:03,42.805,6.029,-0.02,-0.016,0.031,100.0,100.0,98.0,13.3,1505.2,317.0,-0.7,1.8,2471.056,13.29,0.025,231.3
2022-09-25T05:25:03,42.805,6.029,-0.019,-0.012,-0.001,100.0,100.0,99.0,13.4,1505.2,323.3,-0.7,1.8,2471.087,13.29,0.022,237.7
2022-09-25T05:28:03,42.805,6.029,-0.034,-0.012,0.049,100.0,98.0,99.0,13.3,1505.2,323.3,-0.7,1.8,2471.097,13.29,0.036,250.6
2022-09-25T05:31:03,42.805,6.029,-0.008,-0.025,-0.013,99.0,102.0,99.0,13.3,1505.2,325.9,-0.7,1.8,2471.056,13.29,0.026,197.7
2022-09-25T05:34:03,42.805,6.029,-0.018,-0.038,-0.019,100.0,102.0,99.0,13.4,1505.2,329.7,-0.7,1.8,2471.05,13.29,0.042,205.3
2022-09-25T05:37:03,42.805,6.029,-0.014,-0.006,0.009,100.0,102.0,98.0,13.3,1505.2,321.8,-0.8,1.8,2471.074,13.29,0.015,246.8
2022-09-25T05:40:03,42.805,6.029,-0.027,-0.014,0.04,99.0,101.0,100.0,13.3,1505.2,317.5,-0.8,1.8,2471.03,13.29,0.03,242.6
2022-09-25T05:43:03,42.805,6.029,-0.026,-0.026,0.006,101.0,102.0,98.0,13.4,1505.2,332.8,-0.8,1.8,2471.059,13.29,0.036,225.0
2022-09-25T05:46:03,42.805,6.029,-0.036,-0.024,0.015,98.0,101.0,100.0,13.3,1505.2,326.8,-0.8,1.8,2471.089,13.29,0.043,236.3
2022-09-25T05:49:03,42.805,6.029,-0.024,-0.029,-0.026,100.0,100.0,100.0,13.4,1505.2,333.7,-0.7,1.8,2471.102,13.29,0.037,219.6
2022-09-25T05:52:03,42.805,6.029,-0.024,-0.016,-0.003,101.0,100.0,98.0,13.4,1505.2,326.6,-0.8,1.8,2471.072,13.29,0.028,236.3
2022-09-25T05:55:03,42.805,6.029,-0.011,-0.021,0.023,100.0,100.0,99.0,13.3,1505.2,332.2,-0.7,1.8,2471.074,13.29,0.023,207.6
2022-09-25T05:58:03,42.805,6.029,-0.036,-0.031,-0.016,101.0,100.0,99.0,13.3,1505.2,319.8,-0.8,1.8,2471.073,13.29,0.047,229.3
2022-09-25T06:04:03,42.805,6.029,-0.031,-0.009,0.029,100.0,100.0,99.0,13.4,1505.2,322.1,-0.8,1.8,2471.12,13.29,0.032,253.8
2022-09-25T06:07:03,42.805,6.029,-0.026,-0.01,0.038,100.0,101.0,98.0,13.4,1505.2,322.1,-0.7,1.8,2471.129,13.29,0.027,249.0
2022-09-25T06:10:03,42.805,6.029,-0.041,-0.029,0.003,100.0,98.0,99.0,13.4,1505.2,323.2,-0.8,1.8,2471.113,13.29,0.05,234.7
2022-09-25T06:13:03,42.805,6.029,-0.025,-0.042,-0.051,101.0,100.0,99.0,13.4,1505.2,325.6,-0.7,1.8,2471.058,13.29,0.048,210.8
2022-09-25T06:16:03,42.805,6.029,-0.011,-0.02,0.023,100.0,100.0,99.0,13.4,1505.2,319.2,-0.7,1.8,2471.118,13.29,0.022,208.8
2022-09-25T06:19:03,42.805,6.029,-0.026,-0.028,0.031,100.0,102.0,98.0,13.3,1505.2,334.2,-0.8,1.8,2471.102,13.29,0.038,222.9
2022-09-25T06:22:03,42.805,6.029,-0.039,-0.014,0.02,102.0,100.0,99.0,13.3,1505.2,328.3,-0.8,1.8,2471.064,13.29,0.041,250.3
2022-09-25T06:25:03,42.805,6.029,-0.025,-0.011,0.0,99.0,100.0,100.0,13.4,1505.2,321.7,-0.7,1.8,2471.12,13.29,0.027,246.3
2022-09-25T06:28:03,42.805,6.029,-0.032,-0.027,0.016,98.0,100.0,100.0,13.3,1505.2,320.9,-0.8,1.8,2471.064,13.29,0.041,229.8
2022-09-25T06:31:03,42.805,6.029,-0.044,-0.018,-0.009,99.0,102.0,99.0,13.4,1505.2,326.6,-0.8,1.8,2471.076,13.29,0.047,247.8
2022-09-25T06:34:03,42.805,6.029,-0.016,-0.018,0.003,99.0,100.0,99.0,13.4,1505.2,318.4,-0.7,1.8,2471.095,13.29,0.024,221.6
2022-09-25T06:37:03,42.805,6.029,-0.028,0.008,0.051,100.0,99.0,99.0,13.3,1505.2,323.0,-0.7,1.8,2471.092,13.29,0.029,285.9
2022-09-25T06:40:03,42.805,6.029,-0.015,-0.015,0.023,101.0,100.0,99.0,13.3,1505.2,326.1,-0.7,1.8,2471.048,13.29,0.021,225.0
2022-09-25T06:43:03,42.805,6.029,-0.031,-0.035,-0.013,99.0,100.0,99.0,13.4,1505.2,322.2,-0.8,1.8,2471.065,13.29,0.046,221.5
2022-09-25T06:46:03,42.805,6.029,-0.028,-0.022,0.022,100.0,101.0,99.0,13.4,1505.2,327.0,-0.8,1.8,2471.085,13.29,0.035,231.8
2022-09-25T06:49:03,42.805,6.029,-0.003,-0.021,0.015,101.0,101.0,100.0,13.4,1505.2,334.9,-0.8,1.8,2471.068,13.29,0.021,188.1
2022-09-25T06:52:03,42.805,6.029,-0.012,-0.023,-0.006,99.0,100.0,100.0,13.3,1505.2,318.7,-0.7,1.8,2471.108,13.29,0.025,207.6
2022-09-25T06:55:03,42.805,6.029,-0.047,-0.006,0.016,99.0,101.0,100.0,13.3,1505.2,331.2,-0.8,1.8,2471.057,13.29,0.047,262.7
2022-09-25T06:58:03,42.805,6.029,0.006,-0.02,0.002,100.0,101.0,99.0,13.4,1505.2,323.9,-0.8,1.8,2471.114,13.29,0.02,163.3
2022-09-25T07:04:03,42.805,6.029,-0.004,-0.043,-0.026,99.0,101.0,99.0,13.4,1505.2,327.4,-0.8,1.8,2471.134,13.29,0.043,185.3
2022-09-25T07:07:03,42.805,6.029,-0.02,-0.023,-0.013,102.0,99.0,98.0,13.4,1505.2,324.6,-0.8,1.9,2471.148,13.29,0.03,221.0
2022-09-25T07:10:03,42.805,6.029,-0.004,-0.01,0.05,99.0,101.0,99.0,13.3,1505.2,330.6,-0.7,1.8,2471.1,13.29,0.01,201.8
2022-09-25T07:13:03,42.805,6.029,-0.027,0.012,0.035,101.0,100.0,99.0,13.4,1505.2,330.6,-0.7,1.8,2471.14,13.29,0.029,294.0
2022-09-25T07:16:03,42.805,6.029,-0.006,-0.027,0.002,100.0,101.0,98.0,13.4,1505.2,322.2,-0.8,1.8,2471.142,13.29,0.027,192.5
2022-09-25T07:19:03,42.805,6.029,-0.014,-0.004,0.023,101.0,100.0,99.0,13.4,1505.2,320.5,-0.8,1.8,2471.124,13.29,0.014,254.1
2022-09-25T07:22:03,42.805,6.029,-0.017,-0.032,0.011,100.0,100.0,99.0,13.4,1505.2,328.5,-0.8,1.8,2471.066,13.29,0.036,208.0
2022-09-25T07:25:03,42.805,6.029,-0.005,-0.028,0.018,100.0,101.0,99.0,13.4,1505.2,332.2,-0.8,1.8,2471.083,13.29,0.028,190.1
2022-09-25T07:28:03,42.805,6.029,-0.014,-0.006,0.009,100.0,100.0,100.0,13.4,1505.2,322.8,-0.8,1.8,2471.104,13.29,0.015,246.8
2022-09-25T07:31:03,42.805,6.029,-0.033,-0.014,0.026,98.0,101.0,99.0,13.4,1505.2,329.2,-0.8,1.8,2471.08,13.29,0.035,247.0
2022-09-25T07:34:03,42.805,6.029,-0.039,-0.004,0.014,98.0,102.0,100.0,13.4,1505.2,317.4,-0.7,1.8,2471.122,13.29,0.039,264.1
2022-09-25T07:37:03,42.805,6.029,-0.025,-0.029,0.006,100.0,101.0,100.0,13.4,1505.2,320.2,-0.8,1.8,2471.079,13.29,0.038,220.8
2022-09-25T07:40:03,42.805,6.029,0.004,-0.022,-0.001,99.0,100.0,99.0,13.4,1505.2,325.9,-0.8,1.8,2471.083,13.29,0.022,169.7
2022-09-25T07:43:03,42.805,6.029,-0.031,-0.015,0.016,100.0,101.0,99.0,13.4,1505.2,328.9,-0.8,1.9,2471.126,13.29,0.034,244.2
2022-09-25T07:46:03,42.805,6.029,-0.042,-0.036,-0.033,98.0,100.0,99.0,13.4,1505.2,329.0,-0.8,1.8,2471.098,13.29,0.055,229.4
2022-09-25T07:49:03,42.805,6.029,-0.009,-0.026,0.017,99.0,100.0,99.0,13.3,1505.2,318.6,-0.7,1.8,2471.077,13.29,0.027,199.1
2022-09-25T07:52:03,42.805,6.029,-0.024,-0.004,0.031,99.0,100.0,99.0,13.3,1505.2,321.3,-0.7,1.8,2471.041,13.29,0.024,260.5
2022-09-25T07:55:03,42.805,6.029,-0.037,-0.021,0.025,100.0,100.0,99.0,13.4,1505.2,328.7,-0.8,1.8,2471.093,13.29,0.042,240.4
2022-09-25T07:58:03,42.805,6.029,-0.016,-0.019,0.007,100.0,99.0,98.0,13.4,1505.2,330.3,-0.8,1.8,2471.087,13.29,0.024,220.1
2022-09-25T08:04:03,42.805,6.029,-0.057,-0.015,0.007,100.0,103.0,98.0,13.4,1505.2,316.5,-0.8,1.8,2471.148,13.29,0.058,255.3
2022-09-25T08:07:03,42.805,6.029,-0.028,-0.022,-0.014,99.0,99.0,99.0,13.4,1505.2,322.7,-0.7,1.8,2471.111,13.29,0.035,231.8
2022-09-25T08:10:03,42.805,6.029,-0.01,-0.016,0.008,99.0,100.0,99.0,13.3,1505.2,331.1,-0.7,1.8,2471.117,13.29,0.018,212.0
2022-09-25T08:13:03,42.805,6.029,-0.023,-0.029,-0.001,98.0,99.0,100.0,13.3,1505.2,319.0,-0.8,1.8,2471.091,13.29,0.037,218.4
2022-09-25T08:16:03,42.805,6.029,-0.018,-0.014,-0.008,100.0,102.0,99.0,13.3,1505.2,322.6,-0.8,1.8,2471.107,13.29,0.022,232.1
2022-09-25T08:19:03,42.805,6.029,-0.01,-0.056,-0.035,100.0,99.0,100.0,13.4,1505.2,320.9,-0.8,1.8,2471.091,13.29,0.056,190.1
2022-09-25T08:22:03,42.805,6.029,-0.025,-0.008,0.021,99.0,99.0,99.0,13.4,1505.2,326.1,-0.7,1.8,2471.051,13.29,0.026,252.3
2022-09-25T08:25:03,42.805,6.029,-0.017,-0.016,0.009,100.0,100.0,99.0,13.4,1505.2,327.9,-0.7,1.8,2471.044,13.29,0.023,226.7
2022-09-25T08:28:03,42.805,6.029,-0.014,-0.016,0.005,99.0,100.0,99.0,13.4,1505.2,327.9,-0.7,1.8,2471.061,13.29,0.021,221.2
2022-09-25T08:31:03,42.805,6.029,0.002,-0.02,-0.027,100.0,100.0,100.0,13.3,1505.2,319.8,-0.8,1.8,2471.071,13.29,0.02,174.3
2022-09-25T08:34:03,42.805,6.029,-0.029,-0.018,-0.029,99.0,101.0,100.0,13.4,1505.2,327.9,-0.7,1.8,2471.064,13.29,0.034,238.2
2022-09-25T08:37:03,42.805,6.029,-0.018,-0.026,-0.026,99.0,100.0,100.0,13.3,1505.2,321.1,-0.8,1.8,2471.024,13.29,0.031,214.7
2022-09-25T08:40:03,42.805,6.029,-0.019,-0.027,-0.014,99.0,101.0,99.0,13.4,1505.2,327.4,-0.7,1.8,2471.055,13.29,0.033,215.1
2022-09-25T08:43:03,42.805,6.029,-0.024,-0.014,0.023,99.0,100.0,99.0,13.4,1505.2,326.3,-0.8,1.8,2471.066,13.29,0.027,239.7
2022-09-25T08:46:03,42.805,6.029,-0.015,-0.016,0.01,100.0,99.0,100.0,13.4,1505.2,329.7,-0.8,1.8,2471.059,13.29,0.021,223.1
2022-09-25T08:49:03,42.805,6.029,-0.008,-0.056,-0.017,100.0,100.0,100.0,13.4,1505.2,318.1,-0.8,1.8,2471.075,13.29,0.056,188.1
2022-09-25T08:52:03,42.805,6.029,-0.026,-0.014,0.04,101.0,100.0,99.0,13.3,1505.2,322.1,-0.7,1.8,2471.037,13.29,0.029,241.7
2022-09-25T08:55:03,42.805,6.029,-0.029,-0.002,0.014,99.0,100.0,99.0,13.4,1505.2,333.4,-0.7,1.9,2471.079,13.29,0.029,266.1
2022-09-25T08:58:03,42.805,6.029,-0.007,-0.024,0.002,100.0,100.0,99.0,13.3,1505.2,325.9,-0.8,1.8,2471.045,13.29,0.025,196.3
2022-09-25T09:04:03,42.805,6.029,-0.036,-0.003,0.001,98.0,101.0,99.0,13.4,1505.2,333.1,-0.7,1.8,2471.079,13.29,0.036,265.2
2022-09-25T09:07:03,42.805,6.029,-0.034,-0.024,0.011,99.0,100.0,99.0,13.4,1505.2,317.8,-0.8,1.8,2471.093,13.29,0.041,234.8
2022-09-25T09:10:03,42.805,6.029,-0.007,-0.03,0.01,99.0,100.0,100.0,13.4,1505.2,327.6,-0.7,1.8,2471.059,13.29,0.03,193.1
2022-09-25T09:13:03,42.805,6.029,-0.015,-0.041,-0.011,100.0,100.0,99.0,13.3,1505.2,325.9,-0.8,1.8,2471.066,13.29,0.043,200.1
2022-09-25T09:16:03,42.805,6.029,-0.038,0.003,0.03,99.0,100.0,99.0,13.4,1505.2,320.4,-0.8,1.8,2471.032,13.29,0.038,274.5
2022-09-25T09:19:03,42.805,6.029,-0.018,-0.001,0.027,99.0,100.0,99.0,13.4,1505.2,322.7,-0.8,1.8,2471.022,13.29,0.018,266.8
2022-09-25T09:22:03,42.805,6.029,-0.013,-0.007,0.033,97.0,100.0,101.0,13.3,1505.2,318.3,-0.8,1.8,2471.018,13.29,0.014,241.7
2022-09-25T09:25:03,42.805,6.029,-0.001,-0.019,-0.008,98.0,101.0,100.0,13.4,1505.2,331.6,-0.7,1.8,2471.076,13.29,0.019,183.0
2022-09-25T09:28:03,42.805,6.029,-0.039,-0.036,-0.021,101.0,100.0,99.0,13.4,1505.2,321.9,-0.7,1.8,2471.011,13.29,0.053,227.3
2022-09-25T09:31:03,42.805,6.029,0.022,-0.029,0.038,100.0,100.0,100.0,13.4,1505.2,324.9,-0.8,1.9,2471.041,13.29,0.036,142.8
2022-09-25T09:34:03,42.805,6.029,-0.015,-0.008,0.028,99.0,101.0,99.0,13.4,1505.2,325.6,-0.8,1.8,2471.049,13.29,0.017,241.9
2022-09-25T09:37:03,42.805,6.029,-0.035,-0.014,-0.01,98.0,100.0,100.0,13.4,1505.2,333.7,-0.7,1.8,2471.039,13.29,0.037,248.2
2022-09-25T09:40:03,42.805,6.029,-0.037,-0.02,-0.004,102.0,100.0,99.0,13.4,1505.2,326.8,-0.8,1.8,2470.978,13.29,0.042,241.6
2022-09-25T09:43:03,42.805,6.029,-0.037,0.0,0.008,100.0,100.0,100.0,13.3,1505.2,331.6,-0.7,1.8,2471.052,13.29,0.037,270.0
2022-09-25T09:46:03,42.805,6.029,-0.044,-0.018,0.01,100.0,101.0,99.0,13.4,1505.2,330.3,-0.8,1.8,2470.982,13.29,0.047,247.8
2022-09-25T09:49:03,42.805,6.029,0.008,-0.049,-0.032,100.0,101.0,100.0,13.4,1505.2,323.8,-0.8,1.8,2471.044,13.29,0.049,170.7
2022-09-25T09:52:03,42.805,6.029,-0.025,-0.007,0.038,99.0,102.0,98.0,13.4,1505.2,320.9,-0.7,1.8,2471.0,13.29,0.025,254.4
2022-09-25T09:55:03,42.805,6.029,-0.021,-0.022,0.013,99.0,101.0,102.0,13.4,1505.2,324.9,-0.7,1.8,2470.978,13.3,0.03,223.7
2022-09-25T09:58:03,42.805,6.029,-0.01,-0.005,0.021,99.0,100.0,101.0,13.4,1505.2,326.1,-0.8,1.8,2470.977,13.3,0.011,243.4